EW7446 Weather Reports


time (UTC)temp
C
wind
direction
speed
KPH
gust
KPH
rain 1hr
cm
rain 24hr
cm
rain mn
cm
humidity
%
barometer
mb
20260508002601 23 231 4.8 11.3 0.00 0.00 0.00 71 1014.5
20260508002055 23 215 6.4 17.7 0.00 0.00 0.00 69 1014.7
20260508001820 23 170 6.4 17.7 0.00 0.00 0.00 69 1014.6
20260508001048 23 216 9.7 12.9 0.00 0.00 0.00 69 1014.8
20260508000548 23 208 1.6 12.9 0.00 0.00 0.00 69 1014.7
20260508000048 23 196 3.2 12.9 0.00 0.00 0.00 69 1014.7
20260507235548 23 195 4.8 12.9 0.00 0.00 0.00 70 1014.5
20260507235048 23 171 8.0 12.9 0.00 0.00 0.00 70 1014.8
20260507234542 23 181 9.7 14.5 0.00 0.00 0.00 69 1014.6
20260507234036 23 203 0.0 14.5 0.00 0.00 0.00 70 1014.8
20260507233536 23 120 8.0 14.5 0.00 0.00 0.00 69 1014.8
20260507233036 23 193 8.0 12.9 0.00 0.00 0.00 69 1014.6
20260507232807 23 187 3.2 12.9 0.00 0.00 0.00 69 1014.8
20260507232036 23 196 3.2 12.9 0.00 0.00 0.00 68 1014.8
20260507231536 23 209 3.2 12.9 0.00 0.00 0.00 70 1014.8
20260507231036 23 199 4.8 14.5 0.00 0.00 0.00 69 1014.8
20260507230808 23 210 3.2 14.5 0.00 0.00 0.00 70 1014.7
20260507230036 22 209 6.4 14.5 0.00 0.00 0.00 71 1014.8
20260507225536 22 197 3.2 14.5 0.00 0.00 0.00 71 1015.0
20260507225036 22 210 8.0 14.5 0.00 0.00 0.00 72 1015.1
20260507224536 22 176 8.0 17.7 0.00 0.00 0.00 72 1014.8
20260507224036 22 202 6.4 17.7 0.00 0.00 0.00 72 1015.1
20260507223537 22 200 3.2 16.1 0.00 0.00 0.00 72 1015.1
20260507223031 22 212 12.9 16.1 0.00 0.00 0.00 72 1015.2
20260507222524 22 202 6.4 16.1 0.00 0.00 0.00 72 1015.3
20260507222024 22 207 9.7 16.1 0.00 0.00 0.00 71 1015.4
20260507221518 23 233 8.0 14.5 0.00 0.00 0.00 71 1015.2
20260507221012 22 234 8.0 14.5 0.00 0.00 0.00 74 1015.5
20260507220512 22 207 4.8 12.9 0.00 0.00 0.00 72 1015.5
20260507220007 22 201 4.8 14.5 0.00 0.00 0.00 74 1015.6
20260507215500 21 187 8.0 14.5 0.00 0.00 0.00 76 1015.9
20260507215000 22 197 9.7 20.9 0.00 0.00 0.00 75 1015.5
20260507214455 21 198 6.4 20.9 0.00 0.00 0.00 76 1015.8
20260507213949 22 216 9.7 14.5 0.00 0.00 0.00 75 1016.0
20260507213448 22 192 11.3 16.1 0.00 0.00 0.00 75 1016.0
20260507212949 22 241 6.4 16.1 0.00 0.00 0.00 75 1015.8
20260507212448 21 189 9.7 16.1 0.00 0.00 0.00 75 1015.8
20260507211949 22 207 8.0 16.1 0.00 0.00 0.00 73 1015.9
20260507211448 22 198 12.9 16.1 0.00 0.00 0.00 74 1016.0
20260507210948 22 238 11.3 16.1 0.00 0.00 0.00 74 1016.1
20260507210448 22 291 6.4 16.1 0.00 0.00 0.00 73 1016.2
20260507205948 21 207 8.0 16.1 0.00 0.00 0.00 75 1016.3
20260507205448 21 243 8.0 16.1 0.00 0.00 0.00 75 1016.2
20260507204942 21 194 4.8 16.1 0.00 0.00 0.00 75 1016.4
20260507204436 21 246 9.7 20.9 0.00 0.00 0.00 75 1016.3
20260507203936 21 233 8.0 20.9 0.00 0.00 0.00 76 1016.4
20260507203436 22 206 4.8 22.5 0.00 0.00 0.00 74 1016.4
20260507202936 21 235 8.0 22.5 0.00 0.00 0.00 75 1016.5
20260507202436 21 216 9.7 16.1 0.00 0.00 0.00 75 1016.3
20260507201936 21 201 12.9 16.1 0.00 0.00 0.00 75 1016.3
20260507201436 21 203 3.2 14.5 0.00 0.00 0.00 76 1016.2
20260507201206 21 226 9.7 14.5 0.00 0.00 0.00 76 1016.9
20260507200437 21 255 8.0 14.5 0.00 0.00 0.00 77 1017.0
20260507195937 21 250 8.0 16.1 0.00 0.00 0.00 77 1017.0
20260507195431 21 207 12.9 17.7 0.00 0.00 0.00 78 1017.0
20260507194925 21 229 8.0 17.7 0.00 0.00 0.00 78 1016.8
20260507194425 21 224 8.0 16.1 0.00 0.00 0.00 77 1016.9
20260507193918 21 210 11.3 14.5 0.00 0.00 0.00 77 1017.0
20260507193412 21 197 6.4 16.1 0.00 0.00 0.00 78 1016.9
20260507192912 21 214 9.7 16.1 0.00 0.00 0.00 77 1017.0
20260507192406 21 227 9.7 16.1 0.00 0.00 0.00 77 1017.0
20260507191900 21 211 6.4 16.1 0.00 0.00 0.00 78 1017.1
20260507191400 21 204 8.0 14.5 0.00 0.00 0.00 77 1017.1
20260507190854 21 185 11.3 14.5 0.00 0.00 0.00 76 1017.3
20260507190348 21 204 6.4 14.5 0.00 0.00 0.00 75 1017.3
20260507185848 21 174 3.2 16.1 0.00 0.00 0.00 77 1017.3
20260507185348 21 231 3.2 16.1 0.00 0.00 0.00 77 1017.4
20260507184848 21 211 6.4 17.7 0.00 0.00 0.00 78 1017.6
20260507184352 21 181 1.6 12.9 0.00 0.00 0.00 76 1017.5
20260507184348 21 217 11.3 16.1 0.00 0.00 0.00 75 1017.2
20260507183348 21 194 6.4 12.9 0.00 0.00 0.00 75 1017.3
20260507182848 21 216 6.4 9.7 0.00 0.00 0.00 77 1017.6
20260507182348 21 216 6.4 9.7 0.00 0.00 0.00 77 1017.4
20260507181848 21 193 8.0 11.3 0.00 0.00 0.00 75 1017.7
20260507181348 21 194 3.2 11.3 0.00 0.00 0.00 76 1017.5
20260507180848 21 194 8.0 14.5 0.00 0.00 0.00 76 1017.6
20260507180349 20 243 6.4 14.5 0.00 0.00 0.00 78 1017.7
20260507175848 21 234 6.4 14.5 0.00 0.00 0.00 77 1017.6
20260507175348 21 213 1.6 14.5 0.00 0.00 0.00 77 1017.9
20260507174849 20 191 8.0 14.5 0.00 0.00 0.00 77 1017.7
20260507174349 20 210 8.0 14.5 0.00 0.00 0.00 77 1017.8
20260507173848 21 195 6.4 14.5 0.00 0.00 0.00 76 1017.5
20260507173348 21 256 4.8 12.9 0.00 0.00 0.00 75 1017.8
20260507173120 21 248 6.4 11.3 0.00 0.00 0.00 76 1017.6
20260507172348 21 251 9.7 11.3 0.00 0.00 0.00 74 1017.7
20260507171848 21 206 4.8 11.3 0.00 0.00 0.00 75 1017.6
20260507171348 21 252 8.0 11.3 0.00 0.00 0.00 77 1017.6
20260507170848 22 173 4.8 9.7 0.00 0.00 0.00 73 1017.6
20260507170619 22 226 3.2 9.7 0.00 0.00 0.00 74 1017.7
20260507170453 22 214 0.0 9.7 0.00 0.00 0.00 72 1017.8
20260507165349 21 239 3.2 9.7 0.00 0.00 0.00 75 1017.7
20260507165120 22 214 0.0 3.2 0.00 0.00 0.00 75 1017.9
20260507164348 21 197 0.0 4.8 0.00 0.00 0.00 77 1017.5
20260507163848 20 203 1.6 6.4 0.00 0.00 0.00 80 1017.6
20260507163342 20 204 1.6 11.3 0.00 0.00 0.00 79 1017.9
20260507162836 20 137 4.8 11.3 0.00 0.00 0.00 79 1017.9
20260507162607 21 216 0.0 4.8 0.00 0.00 0.00 76 1017.9
20260507161836 21 214 0.0 3.2 0.00 0.00 0.00 78 1018.1
20260507161336 21 197 0.0 3.2 0.00 0.00 0.00 77 1017.9
20260507160836 20 173 0.0 3.2 0.00 0.00 0.00 78 1018.1
20260507160336 21 214 1.6 3.2 0.00 0.00 0.00 77 1017.9
20260507155555 20 208 0.0 4.8 0.00 0.00 0.00 80 1018.1
20260507154824 19 221 0.0 4.8 0.00 0.00 0.00 82 1018.0
20260507154550 19 194 0.0 4.8 0.00 0.00 0.00 83 1018.3
20260507153812 20 225 3.2 4.8 0.00 0.00 0.00 82 1018.0
20260507153311 20 215 0.0 3.2 0.00 0.00 0.00 81 1018.3
20260507152811 19 210 0.0 3.2 0.00 0.00 0.00 83 1018.0
20260507152311 19 210 0.0 1.6 0.00 0.00 0.00 83 1018.3
20260507151759 18 198 0.0 3.2 0.00 0.00 0.00 84 1018.2
20260507151525 18 47 1.6 3.2 0.00 0.00 0.00 84 1018.2
20260507150747 18 215 0.0 3.2 0.00 0.00 0.00 86 1018.0
20260507150247 18 193 3.2 3.2 0.00 0.00 0.00 86 1018.3
20260507145748 17 211 1.6 3.2 0.00 0.00 0.00 88 1018.2
20260507145247 18 210 1.6 3.2 0.00 0.00 0.00 86 1018.3
20260507144747 18 233 0.0 3.2 0.00 0.00 0.00 87 1018.1
20260507144248 18 185 0.0 1.6 0.00 0.00 0.00 86 1018.0
20260507144020 17 218 0.0 1.6 0.00 0.00 0.00 88 1018.1
20260507143251 17 234 0.0 1.6 0.00 0.00 0.00 89 1018.2
20260507143247 17 234 0.0 1.6 0.00 0.00 0.00 88 1018.0
20260507142248 17 235 0.0 0.0 0.00 0.00 0.00 90 1018.0
20260507141747 17 235 0.0 0.0 0.00 0.00 0.00 92 1017.9
20260507141247 16 235 0.0 0.0 0.00 0.00 0.00 95 1018.0
20260507141018 15 235 0.0 0.0 0.00 0.00 0.00 96 1017.8
20260507140248 15 235 0.0 0.0 0.00 0.00 0.00 97 1017.9
20260507135748 15 235 0.0 0.0 0.00 0.00 0.00 97 1017.6
20260507135247 15 235 0.0 0.0 0.00 0.00 0.00 98 1017.7
20260507134748 15 235 0.0 0.0 0.00 0.00 0.00 99 1017.8
20260507134248 14 235 0.0 0.0 0.00 0.00 0.00 99 1017.7
20260507133747 13 235 0.0 0.0 0.00 0.00 0.00 99 1017.5
20260507133247 13 235 0.0 0.0 0.00 0.00 0.00 99 1017.6
20260507132748 13 235 0.0 0.0 0.00 0.00 0.00 99 1017.6
20260507132235 13 235 0.0 0.0 0.00 0.00 0.00 99 1017.5
20260507131735 12 235 0.0 0.0 0.00 0.00 0.00 99 1017.5
20260507131235 12 235 0.0 0.0 0.00 0.00 0.00 99 1017.5
20260507130735 12 235 0.0 0.0 0.00 0.00 0.00 99 1017.5
20260507130236 12 235 0.0 0.0 0.00 0.00 0.00 99 1017.2
20260507130006 12 235 0.0 0.0 0.00 0.00 0.00 99 1017.2
20260507125506 12 235 0.0 0.0 0.00 0.00 0.00 99 1017.3
20260507124736 12 235 0.0 0.0 0.00 0.00 0.00 99 1017.1
20260507124235 12 235 0.0 0.0 0.00 0.00 0.00 99 1017.2
20260507123735 12 235 0.0 0.0 0.00 0.00 0.00 99 1017.1
20260507123235 12 235 0.0 0.0 0.00 0.00 0.00 99 1017.4
20260507122735 12 235 0.0 0.0 0.00 0.00 0.00 99 1017.4
20260507122506 12 235 0.0 0.0 0.00 0.00 0.00 99 1017.2
20260507121736 12 236 0.0 0.0 0.00 0.00 0.00 99 1017.0
20260507121235 12 233 0.0 0.0 0.00 0.00 0.00 99 1017.2
20260507121006 12 233 0.0 0.0 0.00 0.00 0.00 99 1017.2
20260507120507 13 233 0.0 0.0 0.00 0.00 0.00 99 1017.1
20260507115735 12 234 0.0 0.0 0.00 0.00 0.00 99 1017.2
20260507115224 12 233 0.0 0.0 0.00 0.00 0.00 99 1017.4
20260507114954 12 233 0.0 0.0 0.00 0.00 0.00 99 1017.5
20260507114223 13 233 0.0 0.0 0.00 0.00 0.00 99 1017.4
20260507113711 13 234 0.0 0.0 0.00 0.00 0.00 99 1017.3
20260507112918 13 234 0.0 0.0 0.00 0.00 0.00 99 1017.4
20260507112418 13 233 0.0 0.0 0.00 0.00 0.00 99 1017.5
20260507111648 13 233 0.0 0.0 0.00 0.00 0.00 99 1017.5
20260507111148 13 233 0.0 0.0 0.00 0.00 0.00 99 1017.4
20260507110647 13 234 0.0 0.0 0.00 0.00 0.00 99 1017.5
20260507110135 13 234 0.0 0.0 0.00 0.00 0.00 99 1017.5
20260507105635 13 233 0.0 0.0 0.00 0.00 0.00 99 1017.4
20260507105135 13 233 0.0 0.0 0.00 0.00 0.00 99 1017.4
20260507104636 13 234 0.0 0.0 0.00 0.00 0.00 99 1017.5
20260507104135 13 234 0.0 0.0 0.00 0.00 0.00 99 1017.6
20260507103905 13 234 0.0 0.0 0.00 0.00 0.00 99 1017.6
20260507103135 13 234 0.0 0.0 0.00 0.00 0.00 99 1017.7
20260507102635 13 234 0.0 0.0 0.00 0.00 0.00 99 1017.6
20260507102407 13 234 0.0 0.0 0.00 0.00 0.00 99 1017.7
20260507101906 13 234 0.0 0.0 0.00 0.00 0.00 99 1017.4
20260507101135 13 234 0.0 0.0 0.00 0.00 0.00 99 1017.5
20260507100635 13 233 0.0 0.0 0.00 0.00 0.00 99 1017.7
20260507100135 13 234 0.0 0.0 0.00 0.00 0.00 99 1017.7
20260507095906 13 234 0.0 0.0 0.00 0.00 0.00 99 1017.5
20260507095135 13 234 0.0 0.0 0.00 0.00 0.00 99 1017.8
20260507094636 13 234 0.0 0.0 0.00 0.00 0.00 98 1017.7
20260507094135 13 234 0.0 0.0 0.00 0.00 0.00 98 1017.8
20260507093635 13 233 0.0 0.0 0.00 0.00 0.00 98 1017.8
20260507093405 14 234 0.0 0.0 0.00 0.00 0.00 98 1018.0
20260507092636 14 233 0.0 0.0 0.00 0.00 0.00 98 1018.1
20260507092135 14 234 0.0 0.0 0.00 0.00 0.00 98 1017.8
20260507091636 14 234 0.0 0.0 0.00 0.00 0.00 98 1017.8
20260507091135 14 234 0.0 0.0 0.00 0.00 0.00 98 1017.9
20260507090636 14 233 0.0 0.0 0.00 0.00 0.00 98 1018.2
20260507090135 14 234 0.0 0.0 0.00 0.00 0.00 97 1018.4
20260507085635 14 234 0.0 0.0 0.00 0.00 0.00 97 1018.3
20260507085135 14 234 0.0 0.0 0.00 0.00 0.00 97 1018.2
20260507084623 14 234 0.0 0.0 0.00 0.00 0.00 97 1018.3
20260507084112 14 234 0.0 0.0 0.00 0.00 0.00 97 1018.4
20260507083559 14 234 0.0 0.0 0.00 0.00 0.00 97 1018.4
20260507083047 14 234 0.0 0.0 0.00 0.00 0.00 96 1018.2
20260507082547 14 234 0.0 0.0 0.00 0.00 0.00 96 1018.5
20260507082047 15 234 0.0 0.0 0.00 0.00 0.00 96 1018.6
20260507081817 15 235 0.0 0.0 0.00 0.00 0.00 96 1018.5
20260507081047 15 238 0.0 0.0 0.00 0.00 0.00 96 1018.2
20260507080551 15 234 0.0 3.2 0.00 0.00 0.00 95 1018.4
20260507080547 15 228 0.0 3.2 0.00 0.00 0.00 95 1018.3
20260507075547 15 270 0.0 1.6 0.00 0.00 0.00 95 1018.6
20260507075047 15 228 0.0 1.6 0.00 0.00 0.00 95 1018.5
20260507074547 15 234 0.0 1.6 0.00 0.00 0.00 95 1018.9
20260507074047 15 229 0.0 0.0 0.00 0.00 0.00 95 1018.5
20260507073548 15 233 0.0 0.0 0.00 0.00 0.00 95 1018.7
20260507073048 15 226 0.0 1.6 0.00 0.00 0.00 95 1018.5
20260507072547 15 230 0.0 3.2 0.00 0.00 0.00 94 1019.0
20260507072048 15 242 0.0 3.2 0.00 0.00 0.00 94 1018.8
20260507071818 15 232 0.0 0.0 0.00 0.00 0.00 94 1018.6
20260507071047 15 228 0.0 1.6 0.00 0.00 0.00 94 1018.9
20260507070818 15 239 0.0 1.6 0.00 0.00 0.00 94 1018.9
20260507070048 15 242 0.0 1.6 0.00 0.00 0.00 93 1018.8
20260507065535 15 244 0.0 3.2 0.00 0.00 0.00 93 1018.5
20260507065035 15 229 0.0 3.2 0.00 0.00 0.00 93 1018.6
20260507064535 15 278 0.0 3.2 0.00 0.00 0.00 93 1018.9
20260507064035 15 306 0.0 6.4 0.00 0.00 0.00 92 1018.6
20260507063535 15 236 1.6 6.4 0.00 0.00 0.00 92 1018.6
20260507063035 15 228 1.6 4.8 0.00 0.00 0.00 92 1018.7
20260507062535 15 286 1.6 6.4 0.00 0.00 0.00 91 1018.8
20260507062035 15 324 4.8 6.4 0.00 0.00 0.00 91 1018.8
20260507061536 15 232 0.0 9.7 0.00 0.00 0.00 91 1018.8
20260507061307 15 215 6.4 9.7 0.00 0.00 0.00 90 1018.8
20260507060535 16 202 1.6 9.7 0.00 0.00 0.00 90 1019.0
20260507060035 15 287 3.2 9.7 0.00 0.00 0.00 91 1018.9
20260507055535 16 336 1.6 4.8 0.00 0.00 0.00 91 1018.7
20260507055035 16 261 0.0 11.3 0.00 0.00 0.00 91 1018.8
20260507054535 16 297 0.0 11.3 0.00 0.00 0.00 91 1018.7
20260507054040 16 323 1.6 3.2 0.00 0.00 0.00 91 1018.8
20260507054036 16 247 0.0 3.2 0.00 0.00 0.00 91 1018.8
20260507053306 16 289 3.2 4.8 0.00 0.00 0.00 91 1018.7
20260507052540 16 274 0.0 4.8 0.00 0.00 0.00 90 1018.8
20260507052536 16 234 0.0 4.8 0.00 0.00 0.00 90 1018.7
20260507051536 16 238 0.0 6.4 0.00 0.00 0.00 89 1018.9
20260507051035 16 296 3.2 6.4 0.00 0.00 0.00 89 1018.6
20260507050805 16 294 0.0 4.8 0.00 0.00 0.00 88 1018.7
20260507050033 16 277 1.6 6.4 0.00 0.00 0.00 88 1018.8
20260507045804 16 250 0.0 6.4 0.00 0.00 0.00 88 1018.6
20260507045034 16 261 1.6 6.4 0.00 0.00 0.00 87 1018.7
20260507044533 16 235 1.6 6.4 0.00 0.00 0.00 87 1018.7
20260507044035 16 331 3.2 4.8 0.00 0.00 0.00 87 1018.5
20260507043804 16 235 1.6 6.4 0.00 0.00 0.00 86 1018.5
20260507043041 16 311 1.6 9.7 0.00 0.00 0.00 86 1018.6
20260507042533 16 290 1.6 9.7 0.00 0.00 0.00 86 1018.4
20260507042022 16 263 3.2 6.4 0.00 0.00 0.00 87 1018.5
20260507041522 16 257 1.6 6.4 0.00 0.00 0.00 87 1018.5
20260507041021 16 212 1.6 6.4 0.00 0.00 0.00 87 1018.6
20260507040509 16 257 0.0 9.7 0.00 0.00 0.00 86 1018.3
20260507040009 16 301 3.2 4.8 0.00 0.00 0.00 86 1018.5
20260507035510 17 259 3.2 6.4 0.00 0.00 0.00 86 1018.3
20260507034946 17 213 0.0 9.7 0.00 0.00 0.00 85 1018.3
20260507034717 17 226 3.2 9.7 0.00 0.00 0.00 84 1018.3
20260507033947 17 271 1.6 11.3 0.00 0.00 0.00 82 1018.2
20260507033447 17 205 0.0 11.3 0.00 0.00 0.00 81 1018.2
20260507032946 17 288 6.4 11.3 0.00 0.00 0.00 80 1018.1
20260507032446 17 278 3.2 12.9 0.00 0.00 0.00 79 1018.1
20260507031946 17 306 3.2 12.9 0.00 0.00 0.00 79 1018.1
20260507031447 17 302 6.4 9.7 0.00 0.00 0.00 78 1017.9
20260507030946 17 204 0.0 9.7 0.00 0.00 0.00 78 1017.9
20260507030446 17 202 0.0 6.4 0.00 0.00 0.00 79 1017.8
20260507025934 17 294 4.8 6.4 0.00 0.00 0.00 80 1017.8
20260507025434 17 267 3.2 6.4 0.00 0.00 0.00 79 1017.8
20260507024934 18 229 1.6 14.5 0.00 0.00 0.00 78 1017.6
20260507024706 18 306 1.6 14.5 0.00 0.00 0.00 78 1017.8
20260507023934 18 240 3.2 11.3 0.00 0.00 0.00 77 1017.7
20260507023705 18 329 4.8 11.3 0.00 0.00 0.00 76 1017.5
20260507022934 18 280 3.2 11.3 0.00 0.00 0.00 75 1017.3
20260507022422 18 317 3.2 12.9 0.00 0.00 0.00 74 1017.1
20260507021922 18 284 3.2 12.9 0.00 0.00 0.00 74 1017.6
20260507021423 19 257 3.2 9.7 0.00 0.00 0.00 73 1017.5
20260507020911 19 329 3.2 12.9 0.00 0.00 0.00 73 1017.3
20260507020411 19 314 3.2 12.9 0.00 0.00 0.00 72 1017.3
20260507015910 20 284 1.6 11.3 0.00 0.00 0.00 70 1017.3
20260507015358 20 308 1.6 11.3 0.00 0.00 0.00 71 1017.1
20260507014858 20 219 6.4 11.3 0.00 0.00 0.00 69 1017.3
20260507014358 21 299 1.6 9.7 0.00 0.00 0.00 70 1017.3
20260507013847 21 22 1.6 12.9 0.00 0.00 0.00 69 1017.2
20260507013618 21 306 6.4 12.9 0.00 0.00 0.00 68 1017.0
20260507012846 20 295 3.2 12.9 0.00 0.00 0.00 70 1016.9
20260507012346 21 238 3.2 12.9 0.00 0.00 0.00 70 1017.0
20260507011846 21 200 3.2 14.5 0.00 0.00 0.00 69 1017.0
20260507011346 21 197 3.2 14.5 0.00 0.00 0.00 68 1016.8
20260507011118 21 261 4.8 14.5 0.00 0.00 0.00 69 1017.0
20260507010335 21 322 1.6 9.7 0.00 0.00 0.00 68 1016.9
20260507005835 21 213 1.6 12.9 0.00 0.00 0.00 67 1016.8
20260507005334 21 210 4.8 12.9 0.00 0.00 0.00 67 1016.7
20260507004834 22 259 0.0 9.7 0.00 0.00 0.00 67 1016.6
20260507004335 22 226 0.0 17.7 0.00 0.00 0.00 66 1016.8
20260507004105 22 53 4.8 17.7 0.00 0.00 0.00 67 1016.6
20260507003335 21 347 6.4 17.7 0.00 0.00 0.00 66 1017.0